Location: Unspecified
(0.0000°N, 0.0000°E)
Time: 08:41:55
(UTC+02:00)

ADEOS II - Visible Passes

Search period start: 26 August 2016 00:00
Search period end: 05 September 2016 00:00
Orbit: 799 x 802 km, 98.3° (Epoch: 25 August)

Date Brightness Start Highest point End Pass type
(mag) Time Alt. Az. Time Alt. Az. Time Alt. Az.
26 Aug 3.1 05:42:00 10° NNE 05:45:43 42° NE 05:45:43 42° NE visible
27 Aug 4.2 05:16:30 10° NE 05:19:02 22° ENE 05:19:02 22° ENE visible
27 Aug 3.4 06:56:42 10° NNW 06:59:59 19° WNW 06:59:59 19° WNW visible
28 Aug 2.7 06:29:13 10° N 06:33:18 37° WNW 06:33:18 37° WNW visible
29 Aug 2.4 06:02:32 10° N 06:06:39 56° N 06:06:39 56° N visible
30 Aug 3.3 05:36:28 10° NNE 05:39:57 37° ENE 05:39:57 37° ENE visible
31 Aug 4.4 05:11:08 10° NE 05:13:17 19° ENE 05:13:17 19° ENE visible
31 Aug 3.3 06:50:44 10° NNW 06:54:14 22° WNW 06:54:14 22° WNW visible
01 Sep 2.5 06:23:27 10° N 06:27:34 41° NW 06:27:34 41° NW visible
02 Sep 2.5 05:56:54 10° NNE 06:00:54 54° NNE 06:00:54 54° NNE visible
03 Sep 3.6 05:30:58 10° NNE 05:34:13 32° ENE 05:34:13 32° ENE visible
03 Sep 3.8 07:13:29 10° WNW 07:15:11 12° WNW 07:15:11 12° WNW visible
04 Sep 4.6 05:05:50 10° NE 05:07:33 16° ENE 05:07:33 16° ENE visible
04 Sep 3.1 06:44:50 10° NNW 06:48:31 25° WNW 06:48:31 25° WNW visible
